Overview Statistics Trail Chart Weather Telemetry Raw packets
 

This is the latest recevied weather packets stored in our database for station/object WX5KDM. If no packets are shown the sender has not sent any weather packets the latest 10 day(s).

<< 20 21 22 23 24 25 26 >>
Time Temp. Humidity Pressure Rain* Wind** Luminosity Snow
1788484103 29.44° C 71% 1015.1 hPa 0 mm - - -
1788483801 28.33° C 72% 1015.2 hPa 0 mm - - -
1788483501 28.33° C 75% 1015 hPa 0 mm - - -
1788483197 27.78° C 76% 1014.8 hPa 0 mm - - -
1788482891 28.33° C 77% 1014.7 hPa 0 mm - - -
1788482588 28.33° C 77% 1014.7 hPa 0 mm - - -
1788482282 28.89° C 75% 1014.6 hPa 0 mm - - -
1788481979 28.89° C 75% 1014.6 hPa 0 mm - - -
1788481673 28.89° C 74% 1014.6 hPa 0 mm - - -
1788481370 28.89° C 74% 1014.7 hPa 0 mm - - -
1788481069 28.89° C 73% 1014.7 hPa 0 mm - - -
1788480764 29.44° C 72% 1014.8 hPa 0 mm - - -
1788480459 29.44° C 73% 1014.7 hPa 0 mm - - -
1788480153 29.44° C 72% 1014.9 hPa 0 mm - - -
1788479853 29.44° C 72% 1014.8 hPa 0 mm - - -
1788479550 29.44° C 71% 1014.5 hPa 0 mm - - -
1788479249 29.44° C 71% 1014.3 hPa 0 mm - - -
1788478946 29.44° C 71% 1014.4 hPa 0 mm - - -
1788478641 30° C 70% 1014.2 hPa 0 mm - - -
1788478337 30.56° C 69% 1014.5 hPa 0 mm - - -
1788478036 31.11° C 66% 1014.3 hPa 0 mm - - -
1788477732 31.11° C 65% 1014.4 hPa 0 mm - - -
1788477431 31.11° C 64% 1014.6 hPa 0 mm - - -
1788477127 31.11° C 65% 1014.8 hPa 0 mm - - -
1788476822 31.11° C 63% 1014.7 hPa 0 mm - - -

* Rain latest hour (hover to see other rain measurements)
** Current wind speed in m/s (hover to see current wind gust speed)